SWA3462 KLAS-KATL

Flight info

Callsign SWA3462
Flight time N/A
Altitude 35000
Route NIITZ4 SSKEE GUP J72 LORAT/N0443F370 J72 ABQ J6 IRW J14 LIT J66 DEVAC RUSSA GLAVN1
Aircraft B738/M-SDE2E3FGHIRWXY/LB1

Departure

Time 2026-05-05 13:36
Airport Harry Reid International Airport (KLAS)

Arrival

Time N/A
Airport Hartsfield Jackson Atlanta International Airport (KATL)
Time Latitude Longitude Altitude Speed Heading
2026-05-05 13:17 36.08225 -115.15103 2096 ft 0 kts 14°
2026-05-05 13:29 36.08213 -115.15107 2096 ft 3 kts 14°
2026-05-05 13:29 36.08195 -115.15112 2096 ft 3 kts 27°
2026-05-05 13:29 36.08183 -115.15126 2096 ft 3 kts 59°
2026-05-05 13:29 36.08174 -115.15145 2096 ft 2 kts 59°
2026-05-05 13:30 36.08172 -115.15149 2096 ft 1 kts 59°
2026-05-05 13:32 36.08167 -115.15117 2096 ft 8 kts 119°
2026-05-05 13:32 36.08114 -115.15098 2096 ft 14 kts 191°
2026-05-05 13:32 36.08001 -115.15111 2097 ft 15 kts 181°
2026-05-05 13:33 36.07900 -115.15100 2097 ft 14 kts 153°
2026-05-05 13:33 36.07872 -115.14978 2097 ft 21 kts 94°
2026-05-05 13:33 36.07857 -115.14757 2096 ft 27 kts 95°
2026-05-05 13:33 36.07840 -115.14538 2095 ft 26 kts 94°
2026-05-05 13:34 36.07830 -115.14325 2095 ft 26 kts 92°
2026-05-05 13:34 36.07828 -115.14085 2093 ft 30 kts 90°
2026-05-05 13:34 36.07827 -115.13865 2092 ft 21 kts 90°
2026-05-05 13:34 36.07730 -115.13787 2092 ft 19 kts 180°
2026-05-05 13:35 36.07640 -115.13876 2091 ft 19 kts 269°
2026-05-05 13:35 36.07640 -115.14141 2095 ft 62 kts 270°
2026-05-05 13:35 36.07639 -115.14987 2105 ft 132 kts 270°
2026-05-05 13:35 36.07642 -115.16366 2226 ft 181 kts 267°
2026-05-05 13:36 36.07633 -115.17928 3185 ft 180 kts 268°
2026-05-05 13:36 36.07643 -115.19493 4025 ft 188 kts 267°
2026-05-05 13:36 36.07566 -115.21218 4278 ft 214 kts 260°
2026-05-05 13:36 36.07309 -115.23114 4498 ft 234 kts 258°
2026-05-05 13:37 36.06758 -115.25037 4902 ft 243 kts 234°
2026-05-05 13:37 36.05537 -115.26466 5494 ft 244 kts 209°
2026-05-05 13:37 36.03937 -115.27332 5929 ft 260 kts 199°
2026-05-05 13:37 36.02197 -115.28101 6574 ft 269 kts 199°
2026-05-05 13:38 36.00406 -115.28704 7396 ft 267 kts 183°
2026-05-05 13:38 35.98600 -115.28305 7943 ft 266 kts 156°
2026-05-05 13:38 35.97024 -115.27099 8628 ft 273 kts 141°
2026-05-05 13:38 35.95584 -115.25523 9336 ft 280 kts 138°
2026-05-05 13:39 35.94144 -115.23883 10099 ft 283 kts 138°
2026-05-05 13:39 35.92654 -115.22210 10520 ft 300 kts 139°
2026-05-05 13:39 35.91105 -115.20320 10678 ft 325 kts 128°
2026-05-05 13:39 35.89892 -115.17863 10946 ft 345 kts 120°
2026-05-05 13:40 35.88695 -115.15247 11502 ft 353 kts 121°
2026-05-05 13:40 35.87463 -115.12613 12223 ft 356 kts 118°
2026-05-05 13:40 35.86706 -115.09697 12903 ft 362 kts 97°
2026-05-05 13:40 35.86710 -115.06580 13621 ft 366 kts 87°
2026-05-05 13:41 35.86890 -115.03428 14239 ft 371 kts 86°
2026-05-05 13:41 35.87098 -115.00231 14799 ft 376 kts 86°
2026-05-05 13:41 35.87305 -114.97038 15371 ft 381 kts 86°
2026-05-05 13:41 35.87507 -114.93764 15994 ft 384 kts 86°
2026-05-05 13:42 35.87701 -114.90463 16593 ft 388 kts 87°
2026-05-05 13:42 35.87889 -114.87116 17184 ft 392 kts 87°
2026-05-05 13:42 35.88074 -114.83737 17769 ft 396 kts 87°
2026-05-05 13:42 35.88257 -114.80328 18332 ft 400 kts 87°
2026-05-05 13:43 35.88441 -114.76881 18837 ft 404 kts 88°
2026-05-05 13:43 35.88625 -114.73409 19353 ft 407 kts 88°
2026-05-05 13:43 35.88810 -114.69905 19855 ft 410 kts 88°
2026-05-05 13:43 35.88993 -114.66421 20336 ft 414 kts 88°
2026-05-05 13:44 35.89181 -114.62815 20818 ft 418 kts 88°
2026-05-05 13:44 35.89365 -114.59267 21299 ft 422 kts 88°
2026-05-05 13:44 35.89553 -114.55640 21769 ft 425 kts 88°
2026-05-05 13:44 35.89733 -114.51987 22233 ft 428 kts 90°
2026-05-05 13:45 35.89797 -114.48301 22689 ft 431 kts 92°
2026-05-05 13:45 35.89776 -114.44590 23143 ft 434 kts 93°
2026-05-05 13:45 35.89726 -114.40859 23565 ft 437 kts 94°
2026-05-05 13:45 35.89672 -114.37088 23904 ft 441 kts 94°
2026-05-05 13:46 35.89625 -114.33281 24192 ft 446 kts 94°
2026-05-05 13:46 35.89587 -114.29430 24543 ft 449 kts 94°
2026-05-05 13:46 35.89556 -114.25566 24892 ft 452 kts 94°
2026-05-05 13:46 35.89528 -114.21666 25209 ft 456 kts 94°
2026-05-05 13:47 35.89501 -114.17750 25547 ft 459 kts 94°
2026-05-05 13:47 35.89473 -114.13797 25880 ft 462 kts 94°
2026-05-05 13:47 35.89443 -114.09822 26184 ft 465 kts 94°
2026-05-05 13:47 35.89412 -114.05815 26487 ft 468 kts 94°
2026-05-05 13:48 35.89379 -114.01782 26730 ft 473 kts 94°
2026-05-05 13:48 35.89347 -113.98046 27000 ft 476 kts 94°
2026-05-05 13:48 35.89310 -113.93948 27330 ft 479 kts 95°
2026-05-05 13:48 35.89273 -113.89826 27629 ft 481 kts 95°
2026-05-05 13:49 35.89233 -113.85682 27908 ft 484 kts 95°
2026-05-05 13:49 35.89191 -113.81519 28181 ft 487 kts 95°
2026-05-05 13:49 35.89147 -113.77316 28456 ft 490 kts 95°
2026-05-05 13:49 35.89103 -113.73103 28686 ft 494 kts 95°
2026-05-05 13:50 35.89055 -113.68840 28824 ft 500 kts 95°
2026-05-05 13:50 35.89007 -113.64547 29088 ft 502 kts 96°
2026-05-05 13:50 35.88940 -113.60241 29443 ft 502 kts 95°
2026-05-05 13:50 35.88896 -113.55923 29826 ft 503 kts 96°
2026-05-05 13:51 35.88782 -113.51617 30120 ft 501 kts 101°
2026-05-05 13:51 35.88323 -113.47387 30404 ft 497 kts 105°
2026-05-05 13:51 35.87690 -113.43208 30699 ft 495 kts 107°
2026-05-05 13:51 35.87008 -113.39089 30859 ft 498 kts 109°
2026-05-05 13:52 35.86303 -113.34838 31009 ft 502 kts 108°
2026-05-05 13:52 35.85643 -113.30677 31420 ft 499 kts 108°
2026-05-05 13:52 35.85009 -113.26481 31838 ft 497 kts 108°
2026-05-05 13:52 35.84385 -113.22261 31890 ft 504 kts 108°
2026-05-05 13:53 35.83138 -113.13681 32260 ft 509 kts 108°
2026-05-05 13:53 35.82520 -113.09396 32586 ft 507 kts 109°
2026-05-05 13:53 35.81899 -113.05114 32788 ft 509 kts 109°
2026-05-05 13:54 35.81266 -113.00803 32942 ft 512 kts 109°
2026-05-05 13:54 35.80645 -112.96582 33191 ft 512 kts 109°
2026-05-05 13:54 35.80008 -112.92261 33496 ft 511 kts 110°
2026-05-05 13:54 35.79373 -112.87960 33759 ft 511 kts 110°
2026-05-05 13:55 35.78734 -112.83649 33983 ft 512 kts 110°
2026-05-05 13:55 35.78101 -112.79392 34205 ft 511 kts 110°
2026-05-05 13:55 35.77460 -112.75085 34426 ft 510 kts 110°
2026-05-05 13:55 35.76820 -112.70799 34680 ft 509 kts 110°
2026-05-05 13:56 35.76179 -112.66511 34943 ft 507 kts 110°
2026-05-05 13:56 35.75534 -112.62226 34942 ft 511 kts 110°
2026-05-05 13:56 35.74240 -112.53619 34952 ft 511 kts 110°
2026-05-05 13:57 35.72946 -112.45029 34939 ft 509 kts 111°
2026-05-05 13:57 35.71650 -112.36468 34975 ft 508 kts 111°
2026-05-05 13:58 35.70347 -112.27923 34991 ft 508 kts 111°
2026-05-05 13:58 35.69047 -112.19446 35000 ft 507 kts 111°
2026-05-05 13:59 35.67077 -112.06658 34995 ft 507 kts 111°
2026-05-05 14:00 35.65324 -111.95368 34996 ft 508 kts 111°
2026-05-05 14:00 35.63775 -111.85436 34975 ft 510 kts 111°
2026-05-05 14:01 35.62757 -111.76725 34942 ft 524 kts 103°
2026-05-05 14:01 35.62452 -111.67808 34954 ft 536 kts 100°
2026-05-05 14:02 35.62235 -111.58589 34958 ft 542 kts 101°
2026-05-05 14:02 35.61908 -111.49297 34950 ft 546 kts 102°
2026-05-05 14:03 35.61504 -111.40014 34932 ft 548 kts 102°
2026-05-05 14:03 35.61073 -111.30652 34934 ft 549 kts 102°
2026-05-05 14:04 35.60640 -111.21277 34935 ft 549 kts 102°
2026-05-05 14:04 35.60205 -111.11902 34897 ft 549 kts 102°
2026-05-05 14:05 35.59765 -111.02546 34921 ft 549 kts 102°
2026-05-05 14:05 35.59322 -110.93291 34915 ft 549 kts 102°
2026-05-05 14:06 35.58866 -110.83932 34920 ft 549 kts 102°
2026-05-05 14:06 35.58402 -110.74567 34924 ft 549 kts 102°
2026-05-05 14:07 35.57931 -110.65203 34919 ft 550 kts 102°
2026-05-05 14:07 35.57455 -110.55887 34926 ft 550 kts 102°
2026-05-05 14:08 35.56968 -110.46496 34902 ft 550 kts 102°
2026-05-05 14:08 35.56475 -110.37111 34919 ft 551 kts 102°
2026-05-05 14:09 35.55973 -110.27712 34919 ft 551 kts 102°
2026-05-05 14:09 35.55464 -110.18317 34920 ft 551 kts 103°
2026-05-05 14:10 35.54947 -110.08920 34914 ft 552 kts 102°
2026-05-05 14:10 35.54430 -109.99650 34926 ft 552 kts 102°
2026-05-05 14:11 35.53897 -109.90223 34923 ft 553 kts 103°
2026-05-05 14:11 35.53361 -109.80867 34932 ft 553 kts 103°
2026-05-05 14:12 35.52814 -109.71444 34924 ft 554 kts 103°
2026-05-05 14:12 35.52259 -109.62013 34931 ft 554 kts 103°
2026-05-05 14:13 35.51696 -109.52578 34922 ft 555 kts 103°
2026-05-05 14:13 35.51126 -109.43143 34907 ft 554 kts 102°
2026-05-05 14:14 35.50648 -109.35315 34953 ft 553 kts 102°
2026-05-05 14:14 35.50066 -109.25898 34973 ft 553 kts 103°
2026-05-05 14:15 35.49477 -109.16502 35007 ft 552 kts 103°
2026-05-05 14:15 35.48880 -109.07110 34996 ft 551 kts 102°
2026-05-05 14:16 35.48286 -108.97850 35011 ft 551 kts 102°
2026-05-05 14:16 35.47669 -108.88485 35029 ft 549 kts 104°
2026-05-05 14:17 35.46236 -108.79449 35050 ft 535 kts 114°
2026-05-05 14:17 35.44340 -108.70627 34918 ft 535 kts 114°
2026-05-05 14:18 35.42449 -108.61787 34907 ft 537 kts 113°
2026-05-05 14:18 35.40629 -108.52956 34910 ft 538 kts 113°
2026-05-05 14:19 35.38815 -108.44041 34909 ft 539 kts 113°
2026-05-05 14:19 35.37601 -108.38089 34906 ft 539 kts 113°
2026-05-05 14:20 35.35781 -108.29226 34917 ft 540 kts 113°
2026-05-05 14:21 35.33937 -108.20298 34922 ft 541 kts 113°
2026-05-05 14:21 35.32084 -108.11363 34976 ft 542 kts 113°
2026-05-05 14:22 35.30222 -108.02423 35018 ft 542 kts 113°
2026-05-05 14:22 35.28378 -107.93598 35045 ft 542 kts 113°
2026-05-05 14:23 35.26502 -107.84656 35048 ft 542 kts 113°
2026-05-05 14:23 35.25564 -107.80197 34914 ft 542 kts 113°
2026-05-05 14:23 35.24621 -107.75727 34917 ft 542 kts 113°
2026-05-05 14:24 35.22745 -107.66856 34907 ft 542 kts 113°
2026-05-05 14:24 35.20847 -107.57917 34906 ft 543 kts 113°
2026-05-05 14:25 35.18946 -107.48994 34903 ft 541 kts 114°
2026-05-05 14:25 35.17038 -107.40078 34889 ft 541 kts 114°
2026-05-05 14:26 35.15130 -107.31192 34885 ft 540 kts 114°
2026-05-05 14:26 35.13218 -107.22314 34884 ft 540 kts 114°
2026-05-05 14:27 35.11307 -107.13434 34867 ft 540 kts 114°
2026-05-05 14:27 35.09393 -107.04567 34872 ft 540 kts 114°
2026-05-05 14:28 35.07963 -106.97965 34868 ft 541 kts 114°
2026-05-05 14:28 35.06020 -106.89025 34868 ft 542 kts 114°
2026-05-05 14:29 35.05179 -106.85045 35000 ft 545 kts 110°
2026-05-05 14:29 35.04853 -106.82977 35007 ft 550 kts 106°
2026-05-05 14:29 35.04631 -106.73517 35019 ft 565 kts 91°
2026-05-05 14:30 35.05255 -106.63942 35010 ft 567 kts 90°
2026-05-05 14:30 35.05883 -106.54310 35020 ft 569 kts 91°
2026-05-05 14:31 35.06432 -106.44667 35006 ft 570 kts 91°
2026-05-05 14:31 35.06935 -106.34996 34954 ft 571 kts 91°
2026-05-05 14:32 35.07428 -106.25334 34904 ft 570 kts 91°
2026-05-05 14:32 35.07919 -106.15684 34880 ft 569 kts 91°
2026-05-05 14:33 35.08405 -106.06032 34874 ft 569 kts 91°
2026-05-05 14:33 35.08867 -105.96726 34853 ft 569 kts 91°
2026-05-05 14:34 35.09335 -105.87156 34859 ft 568 kts 91°
2026-05-05 14:34 35.09797 -105.77525 34857 ft 568 kts 91°
2026-05-05 14:35 35.10251 -105.67905 34860 ft 568 kts 91°
2026-05-05 14:35 35.10697 -105.58288 34838 ft 567 kts 91°
2026-05-05 14:36 35.11135 -105.48692 34828 ft 566 kts 91°
2026-05-05 14:36 35.11565 -105.39094 34825 ft 565 kts 91°
2026-05-05 14:37 35.11986 -105.29546 34805 ft 565 kts 91°
2026-05-05 14:37 35.12400 -105.19954 34805 ft 566 kts 92°
2026-05-05 14:38 35.12807 -105.10346 34795 ft 567 kts 92°
2026-05-05 14:38 35.13208 -105.00725 34793 ft 567 kts 92°
2026-05-05 14:39 35.13597 -104.91202 34824 ft 568 kts 92°
2026-05-05 14:39 35.13984 -104.81530 34836 ft 571 kts 92°
2026-05-05 14:40 35.14365 -104.71817 34844 ft 573 kts 92°
2026-05-05 14:40 35.14737 -104.62168 34858 ft 574 kts 92°
2026-05-05 14:41 35.15105 -104.52413 34833 ft 575 kts 92°
2026-05-05 14:41 35.15465 -104.42660 34811 ft 575 kts 92°
2026-05-05 14:42 35.15817 -104.32904 34781 ft 575 kts 92°
2026-05-05 14:42 35.16161 -104.23143 34765 ft 575 kts 92°
2026-05-05 14:43 35.16497 -104.13387 34787 ft 575 kts 92°
2026-05-05 14:43 35.16826 -104.03592 34799 ft 577 kts 92°
2026-05-05 14:44 35.17145 -103.93884 34848 ft 578 kts 92°
2026-05-05 14:44 35.17460 -103.84049 34861 ft 579 kts 92°
2026-05-05 14:45 35.17765 -103.74278 34943 ft 580 kts 92°
2026-05-05 14:45 35.18065 -103.64429 34958 ft 581 kts 92°
2026-05-05 14:46 35.18371 -103.54555 34954 ft 582 kts 91°
2026-05-05 14:46 35.18718 -103.44673 34923 ft 582 kts 91°
2026-05-05 14:47 35.19068 -103.34786 34902 ft 582 kts 91°
2026-05-05 14:47 35.19403 -103.24883 34855 ft 582 kts 91°
2026-05-05 14:48 35.19723 -103.14991 34834 ft 582 kts 91°
2026-05-05 14:48 35.20034 -103.05095 34833 ft 582 kts 91°
2026-05-05 14:49 35.20334 -102.95364 34844 ft 583 kts 91°
2026-05-05 14:49 35.20631 -102.85446 34848 ft 583 kts 91°
2026-05-05 14:50 35.20920 -102.75537 34832 ft 584 kts 91°
2026-05-05 14:50 35.21202 -102.65606 34842 ft 584 kts 91°
2026-05-05 14:51 35.21476 -102.55673 34836 ft 584 kts 91°
2026-05-05 14:51 35.21741 -102.45734 34829 ft 585 kts 91°
2026-05-05 14:52 35.21998 -102.35800 34826 ft 585 kts 91°
2026-05-05 14:52 35.22248 -102.25843 34822 ft 586 kts 91°
2026-05-05 14:53 35.22490 -102.15882 34813 ft 587 kts 91°
2026-05-05 14:53 35.22724 -102.05901 34845 ft 587 kts 91°
2026-05-05 14:54 35.22948 -101.96018 34871 ft 588 kts 91°
2026-05-05 14:54 35.23166 -101.86023 34920 ft 588 kts 91°
2026-05-05 14:55 35.23376 -101.76029 34935 ft 588 kts 91°
2026-05-05 14:55 35.23603 -101.66023 34928 ft 589 kts 90°
2026-05-05 14:56 35.23664 -101.64331 34929 ft 589 kts 89°
2026-05-05 14:56 35.24026 -101.56505 34918 ft 589 kts 88°
2026-05-05 14:57 35.24547 -101.46493 34882 ft 589 kts 88°
2026-05-05 14:57 35.25032 -101.36486 34836 ft 589 kts 89°
2026-05-05 14:58 35.25471 -101.26540 34792 ft 589 kts 88°
2026-05-05 14:58 35.25895 -101.16521 34792 ft 590 kts 89°
2026-05-05 14:59 35.26314 -101.06484 34797 ft 590 kts 89°
2026-05-05 14:59 35.26724 -100.96562 34795 ft 590 kts 89°
2026-05-05 15:00 35.27062 -100.88232 34797 ft 590 kts 89°
2026-05-05 15:00 35.27527 -100.76565 34788 ft 590 kts 89°
2026-05-05 15:01 35.27917 -100.66541 34760 ft 590 kts 89°
2026-05-05 15:01 35.28298 -100.56516 34765 ft 590 kts 89°
2026-05-05 15:02 35.28672 -100.46476 34776 ft 590 kts 89°
2026-05-05 15:02 35.28979 -100.38060 34760 ft 591 kts 89°
2026-05-05 15:03 35.29337 -100.28014 34763 ft 591 kts 89°
2026-05-05 15:03 35.29686 -100.18018 34746 ft 591 kts 88°
2026-05-05 15:04 35.30027 -100.07977 34751 ft 590 kts 88°
2026-05-05 15:04 35.30358 -99.98017 34742 ft 590 kts 89°
2026-05-05 15:05 35.30843 -99.82957 34737 ft 590 kts 88°
2026-05-05 15:06 35.31155 -99.72911 34762 ft 590 kts 89°
2026-05-05 15:06 35.31460 -99.62878 34770 ft 590 kts 89°
2026-05-05 15:07 35.31753 -99.52915 34788 ft 590 kts 89°
2026-05-05 15:07 35.32041 -99.42879 34804 ft 590 kts 88°
2026-05-05 15:08 35.32320 -99.32844 34811 ft 589 kts 89°
2026-05-05 15:08 35.32591 -99.22808 34816 ft 589 kts 89°
2026-05-05 15:09 35.32854 -99.12784 34812 ft 589 kts 89°
2026-05-05 15:09 35.33108 -99.02765 34798 ft 589 kts 88°
2026-05-05 15:10 35.33351 -98.92845 34697 ft 589 kts 89°
2026-05-05 15:10 35.33590 -98.82829 34704 ft 589 kts 89°
2026-05-05 15:11 35.33826 -98.72797 34751 ft 589 kts 89°
2026-05-05 15:11 35.34054 -98.62767 34749 ft 589 kts 88°
2026-05-05 15:12 35.34273 -98.52801 34744 ft 590 kts 89°
2026-05-05 15:12 35.34485 -98.42758 34689 ft 590 kts 89°
2026-05-05 15:13 35.34688 -98.32713 34711 ft 590 kts 88°
2026-05-05 15:13 35.34882 -98.22748 34722 ft 591 kts 89°
2026-05-05 15:14 35.35064 -98.12940 34735 ft 591 kts 89°
2026-05-05 15:14 35.35243 -98.02896 34738 ft 591 kts 89°
2026-05-05 15:15 35.35411 -97.92974 34730 ft 591 kts 89°
2026-05-05 15:15 35.35574 -97.82908 34713 ft 591 kts 89°
2026-05-05 15:16 35.35728 -97.72836 34703 ft 591 kts 89°
2026-05-05 15:16 35.35873 -97.62754 34699 ft 591 kts 89°
2026-05-05 15:17 35.35296 -97.52728 34710 ft 590 kts 99°
2026-05-05 15:17 35.34157 -97.42871 34694 ft 590 kts 100°
2026-05-05 15:18 35.32999 -97.32914 34694 ft 590 kts 99°
2026-05-05 15:18 35.31924 -97.22954 34689 ft 590 kts 99°
2026-05-05 15:19 35.30879 -97.12984 34692 ft 590 kts 99°
2026-05-05 15:19 35.29823 -97.03005 34704 ft 590 kts 99°
2026-05-05 15:20 35.28796 -96.93462 34695 ft 589 kts 99°
2026-05-05 15:20 35.27715 -96.83526 34708 ft 589 kts 99°
2026-05-05 15:21 35.26626 -96.73577 34703 ft 590 kts 99°
2026-05-05 15:21 35.25528 -96.63631 34703 ft 590 kts 99°
2026-05-05 15:22 35.24426 -96.53712 34686 ft 590 kts 99°
2026-05-05 15:22 35.23319 -96.43830 34689 ft 590 kts 99°
2026-05-05 15:23 35.22199 -96.33899 34685 ft 590 kts 99°
2026-05-05 15:23 35.21070 -96.23965 34689 ft 589 kts 99°
2026-05-05 15:24 35.19932 -96.14028 34700 ft 589 kts 99°
2026-05-05 15:24 35.18785 -96.04098 34707 ft 589 kts 99°
2026-05-05 15:25 35.17648 -95.94313 34708 ft 589 kts 99°
2026-05-05 15:25 35.16487 -95.84395 34710 ft 589 kts 99°
2026-05-05 15:26 35.15319 -95.74486 34727 ft 589 kts 99°
2026-05-05 15:26 35.14151 -95.64647 34735 ft 589 kts 99°
2026-05-05 15:27 35.12966 -95.54731 34731 ft 589 kts 99°
2026-05-05 15:27 35.11774 -95.44844 34718 ft 588 kts 99°
2026-05-05 15:28 35.10502 -95.34980 34732 ft 587 kts 100°
2026-05-05 15:28 35.09189 -95.25132 34742 ft 587 kts 100°
2026-05-05 15:29 35.07888 -95.15354 34752 ft 587 kts 100°
2026-05-05 15:29 35.06581 -95.05503 34747 ft 588 kts 100°
2026-05-05 15:30 35.05282 -94.95766 34752 ft 588 kts 100°
2026-05-05 15:30 35.03957 -94.85916 34752 ft 588 kts 100°
2026-05-05 15:31 35.02625 -94.76069 34744 ft 588 kts 100°
2026-05-05 15:31 35.01288 -94.66229 34781 ft 587 kts 99°
2026-05-05 15:32 35.00040 -94.56450 34790 ft 587 kts 98°
2026-05-05 15:32 34.98824 -94.46563 34771 ft 587 kts 98°
2026-05-05 15:33 34.97602 -94.36758 34763 ft 587 kts 98°
2026-05-05 15:33 34.96353 -94.26920 34769 ft 587 kts 99°
2026-05-05 15:34 34.95091 -94.17097 34779 ft 586 kts 99°
2026-05-05 15:34 34.93832 -94.07345 34775 ft 586 kts 99°
2026-05-05 15:35 34.92570 -93.97628 34738 ft 587 kts 99°
2026-05-05 15:35 34.91287 -93.87804 34781 ft 586 kts 99°
2026-05-05 15:36 34.89997 -93.77998 34802 ft 586 kts 98°
2026-05-05 15:36 34.88699 -93.68189 34797 ft 586 kts 98°
2026-05-05 15:37 34.87402 -93.58453 34800 ft 586 kts 99°
2026-05-05 15:37 34.86089 -93.48657 34799 ft 586 kts 99°
2026-05-05 15:38 34.84768 -93.38858 34805 ft 586 kts 99°
2026-05-05 15:38 34.83438 -93.29064 34815 ft 586 kts 99°
2026-05-05 15:39 34.82103 -93.19287 34814 ft 586 kts 99°
2026-05-05 15:39 34.80759 -93.09505 34826 ft 586 kts 99°
2026-05-05 15:40 34.79433 -92.99911 34820 ft 586 kts 99°
2026-05-05 15:40 34.78087 -92.90237 34830 ft 585 kts 99°
2026-05-05 15:41 34.76720 -92.80471 34844 ft 585 kts 99°
2026-05-05 15:41 34.75347 -92.70715 34848 ft 585 kts 99°
2026-05-05 15:42 34.73966 -92.60959 34852 ft 585 kts 98°
2026-05-05 15:42 34.72576 -92.51208 34836 ft 584 kts 99°
2026-05-05 15:43 34.71183 -92.41484 34849 ft 584 kts 99°
2026-05-05 15:43 34.69786 -92.31783 34859 ft 582 kts 99°
2026-05-05 15:44 34.68455 -92.22072 34856 ft 581 kts 93°
2026-05-05 15:44 34.68549 -92.12420 34856 ft 570 kts 75°
2026-05-05 15:45 34.70110 -92.03037 34858 ft 566 kts 72°
2026-05-05 15:45 34.71719 -91.93790 34851 ft 567 kts 72°
2026-05-05 15:46 34.73267 -91.84386 34867 ft 567 kts 72°
2026-05-05 15:46 34.74763 -91.74980 34872 ft 566 kts 73°
2026-05-05 15:47 34.76250 -91.65577 34879 ft 565 kts 73°
2026-05-05 15:47 34.77736 -91.56177 34883 ft 565 kts 73°
2026-05-05 15:48 34.79205 -91.46855 34881 ft 565 kts 72°
2026-05-05 15:48 34.80676 -91.37468 34884 ft 564 kts 72°
2026-05-05 15:49 34.82136 -91.28095 34881 ft 563 kts 72°
2026-05-05 15:49 34.83346 -91.20300 34880 ft 563 kts 72°
2026-05-05 15:50 34.84791 -91.10926 34898 ft 563 kts 72°
2026-05-05 15:50 34.86224 -91.01548 34887 ft 563 kts 72°
2026-05-05 15:51 34.87634 -90.92262 34874 ft 562 kts 72°
2026-05-05 15:51 34.89053 -90.82881 34878 ft 562 kts 72°
2026-05-05 15:52 34.90454 -90.73573 34893 ft 562 kts 72°
2026-05-05 15:52 34.91856 -90.64203 34883 ft 562 kts 72°
2026-05-05 15:53 34.93252 -90.54823 34887 ft 562 kts 72°
2026-05-05 15:53 34.94639 -90.45447 34900 ft 562 kts 72°
2026-05-05 15:54 34.96020 -90.36067 34913 ft 562 kts 72°
2026-05-05 15:54 34.97392 -90.26691 34904 ft 561 kts 73°
2026-05-05 15:55 34.98755 -90.17328 34906 ft 561 kts 73°
2026-05-05 15:55 35.00111 -90.07961 34923 ft 559 kts 73°
2026-05-05 15:56 35.01131 -89.98680 34953 ft 565 kts 83°
2026-05-05 15:56 35.00381 -89.89135 34958 ft 573 kts 97°
2026-05-05 15:57 34.98872 -89.79581 34890 ft 573 kts 98°
2026-05-05 15:57 34.97373 -89.70029 34933 ft 574 kts 97°
2026-05-05 15:58 34.95937 -89.60438 34939 ft 575 kts 97°
2026-05-05 15:58 34.94522 -89.50825 34931 ft 577 kts 97°
2026-05-05 15:59 34.93095 -89.41189 34920 ft 578 kts 97°
2026-05-05 15:59 34.91650 -89.31546 34923 ft 579 kts 97°
2026-05-05 16:00 34.90193 -89.21889 34942 ft 579 kts 97°
2026-05-05 16:00 34.88736 -89.12290 34930 ft 579 kts 97°
2026-05-05 16:01 34.87266 -89.02648 34939 ft 578 kts 97°
2026-05-05 16:01 34.86788 -88.99525 34942 ft 578 kts 98°